Location: Newark
(50.0953°N, 2.1719°E)
Time: 19:20:22
(UTC+00:00)

N. Korean satellite - Pass Details

Date: 26 January 2020
Orbit: 456 x 505 km, 97.2° (Epoch: 19 February)

Event Time Altitude Azimuth Distance (km) Brightness Sun altitude
Rises 05:15:54 0° 20° (NNE) 2,538 10.4 -21.9°
Reaches altitude 10° 05:18:04 10° 29° (NNE) 1,663 9.6 -21.6°
Maximum altitude 05:21:23 35° 97° (E) 794 8.2 -21.1°
Drops below altitude 10° 05:24:44 10° 165° (SSE) 1,675 9.5 -20.5°
Sets 05:26:55 0° 174° (S) 2,560 10.4 -20.2°
